Date String (YYYY-MM-DD hh:mm:ss) UTC,Instrument flags,Ambient pressure (hPa),Sample flow (lpm),Bypass flow (lpm),Sample temperature (°C),Ambient temperature (°C),ASC tube jacket temperature (°C),LED temperature (°C),Box temperature (°C),Sample RH (%),Span deviation,Mass concentration (μg/m³),Mass concentration (μg/m³),Mass concentration (μg/m³)
DateTimeUTC,F1_M11,P_M11,Q1_M11,Q2_M11,T1_M11,T2_M11,T3_M11,T4_M11,T5_M11,U1_M11,ZSPAN_M11,X0_M11,X2_M11,X1_M11
2022-05-30 10:00:00,,0812.2,5.00,0.00,28.1,26.8,00.0,37.1,30.0,15.2,0000.0,0003.69,0001.50,0000.53
2022-05-30 10:01:00,,0812.3,4.99,0.00,28.1,26.8,00.0,37.1,30.0,15.1,0000.0,0003.65,0001.49,0000.52
2022-05-30 10:02:00,,0812.3,5.00,0.00,28.1,26.8,00.0,37.1,29.9,14.8,0000.0,0003.75,0001.43,0000.50
2022-05-30 10:03:00,,0812.2,5.01,0.00,28.1,26.8,00.0,37.1,29.9,15.0,0000.0,0003.91,0001.42,0000.48
2022-05-30 10:04:00,,0812.2,5.00,0.00,28.1,26.8,00.0,37.0,29.9,15.1,0000.0,0004.13,0001.45,0000.47
2022-05-30 10:05:00,,0812.2,5.00,0.00,28.1,26.8,00.0,37.0,29.9,16.0,0000.0,0004.21,0001.46,0000.46
2022-05-30 10:06:00,,0812.2,4.99,0.00,28.1,26.8,00.0,37.0,29.9,15.6,0000.0,0004.22,0001.46,0000.46
2022-05-30 10:07:00,,0812.2,4.99,0.00,28.1,26.8,00.0,37.0,29.9,13.9,0000.0,0004.22,0001.47,0000.46
2022-05-30 10:08:00,,0812.1,5.01,0.00,28.1,26.8,00.0,37.0,29.9,14.0,0000.0,0004.13,0001.52,0000.50
2022-05-30 10:09:00,,0812.1,5.00,0.00,28.1,26.8,00.0,37.0,29.9,14.5,0000.0,0004.11,0001.53,0000.52
2022-05-30 10:10:00,,0812.1,5.00,0.00,28.1,26.8,00.0,37.0,29.9,13.3,0000.0,0004.32,0001.63,0000.56
2022-05-30 10:11:00,,0812.1,4.98,0.00,28.1,26.8,00.0,37.0,29.9,13.3,0000.0,0004.46,0001.67,0000.61
2022-05-30 10:12:00,,0812.1,5.00,0.00,28.1,26.7,00.0,37.0,29.9,13.3,0000.0,0005.40,0001.74,0000.64
2022-05-30 10:13:00,,0812.0,5.00,0.00,28.0,26.7,00.0,37.0,29.9,13.2,0000.0,0006.61,0001.91,0000.69
2022-05-30 10:14:00,,0812.1,5.00,0.00,28.0,26.7,00.0,37.0,29.9,12.9,0000.0,0006.62,0002.02,0000.75
2022-05-30 10:15:00,,0812.0,5.00,0.00,28.0,26.7,00.0,37.0,29.9,12.4,0000.0,0006.89,0002.13,0000.80
2022-05-30 10:16:00,,0812.1,5.00,0.00,28.0,26.7,00.0,37.0,29.9,12.3,0000.0,0007.15,0002.19,0000.85
2022-05-30 10:17:00,,0812.1,5.01,0.00,28.0,26.7,00.0,37.0,29.8,12.6,0000.0,0007.36,0002.31,0000.89
2022-05-30 10:18:00,,0812.1,5.00,0.00,28.0,26.6,00.0,37.0,29.8,12.2,0000.0,0007.45,0002.41,0000.94
2022-05-30 10:19:00,,0812.1,5.00,0.00,28.0,26.6,00.0,37.0,29.8,12.3,0000.0,0007.59,0002.46,0000.96
2022-05-30 10:20:00,,0812.0,4.99,0.00,28.0,26.6,00.0,37.0,29.8,11.7,0000.0,0007.85,0002.59,0000.98
2022-05-30 10:21:00,,0812.1,5.01,0.00,28.0,26.7,00.0,36.9,29.8,11.3,0000.0,0008.08,0002.69,0001.00
2022-05-30 10:22:00,,0812.1,5.00,0.00,28.0,26.7,00.0,36.9,29.8,11.3,0000.0,0008.23,0002.76,0001.02
2022-05-30 10:23:00,,0812.0,5.00,0.00,28.0,26.7,00.0,36.9,29.8,11.5,0000.0,0008.00,0002.85,0001.06
2022-05-30 10:24:00,,0812.0,5.00,0.00,28.0,26.7,00.0,36.9,29.8,12.0,0000.0,0007.55,0002.94,0001.07
2022-05-30 10:25:00,,0812.0,5.00,0.00,28.0,26.7,00.0,36.9,29.8,11.4,0000.0,0007.67,0002.93,0001.07
2022-05-30 10:26:00,,0812.1,5.00,0.00,28.0,26.7,00.0,36.9,29.8,10.7,0000.0,0007.88,0002.92,0001.08
2022-05-30 10:27:00,,0812.0,4.99,0.00,28.0,26.7,00.0,36.9,29.8,10.9,0000.0,0008.09,0002.93,0001.07
2022-05-30 10:28:00,,0812.1,5.00,0.00,27.9,26.7,00.0,36.9,29.8,11.1,0000.0,0008.05,0002.90,0001.08
2022-05-30 10:29:00,,0812.1,5.02,0.00,27.9,26.6,00.0,36.9,29.8,11.1,0000.0,0008.09,0002.93,0001.09
2022-05-30 10:30:00,,0812.1,5.01,0.00,27.9,26.6,00.0,36.9,29.8,11.3,0000.0,0008.00,0002.90,0001.08
2022-05-30 10:31:00,,0812.0,4.99,0.00,27.9,26.6,00.0,36.9,29.8,11.4,0000.0,0008.24,0002.75,0001.07
2022-05-30 10:32:00,,0812.1,5.01,0.00,27.9,26.6,00.0,36.9,29.8,11.2,0000.0,0008.67,0002.67,0001.06
2022-05-30 10:33:00,,0812.1,5.00,0.00,27.9,26.6,00.0,36.9,29.8,11.0,0000.0,0008.74,0002.70,0001.06
2022-05-30 10:34:00,,0812.1,5.00,0.00,27.9,26.6,00.0,36.9,29.7,11.2,0000.0,0008.80,0002.73,0001.05
2022-05-30 10:35:00,,0812.1,5.01,0.00,27.9,26.6,00.0,36.9,29.7,11.5,0000.0,0008.69,0002.66,0001.05
2022-05-30 10:36:00,,0812.0,4.99,0.00,27.9,26.6,00.0,36.9,29.7,11.4,0000.0,0008.98,0002.62,0001.06
2022-05-30 10:37:00,,0812.0,4.99,0.00,27.8,26.6,00.0,36.9,29.7,11.6,0000.0,0008.91,0002.57,0001.06
2022-05-30 10:38:00,,0812.1,5.00,0.00,27.8,26.5,00.0,36.8,29.6,11.9,0000.0,0008.51,0002.56,0001.07
2022-05-30 10:39:00,,0812.0,5.00,0.00,27.8,26.5,00.0,36.8,29.6,11.9,0000.0,0008.56,0002.57,0001.07
2022-05-30 10:40:00,,0812.0,5.00,0.00,27.8,26.5,00.0,36.8,29.5,12.0,0000.0,0009.37,0002.58,0001.07
2022-05-30 10:41:00,,0812.1,4.99,0.00,27.7,26.4,00.0,36.8,29.5,12.5,0000.0,0009.47,0002.68,0001.07
2022-05-30 10:42:00,,0812.0,5.00,0.00,27.7,26.4,00.0,36.8,29.5,12.2,0000.0,0009.18,0002.76,0001.08
2022-05-30 10:43:00,,0812.0,5.02,0.00,27.7,26.4,00.0,36.8,29.4,12.4,0000.0,0008.65,0002.78,0001.09
2022-05-30 10:44:00,,0812.0,5.00,0.00,27.7,26.3,00.0,36.8,29.4,12.5,0000.0,0008.44,0002.75,0001.09
2022-05-30 10:45:00,,0812.0,5.01,0.00,27.6,26.3,00.0,36.8,29.4,12.8,0000.0,0008.42,0002.70,0001.09
2022-05-30 10:46:00,,0812.0,5.00,0.00,27.6,26.3,00.0,36.7,29.4,13.0,0000.0,0008.40,0002.70,0001.07
2022-05-30 10:47:00,,0812.0,5.00,0.00,27.6,26.3,00.0,36.7,29.3,12.8,0000.0,0007.92,0002.70,0001.08
2022-05-30 10:48:00,,0812.0,5.00,0.00,27.5,26.2,00.0,36.7,29.3,12.3,0000.0,0007.76,0002.75,0001.07
2022-05-30 10:49:00,,0812.0,5.00,0.00,27.5,26.2,00.0,36.7,29.3,12.5,0000.0,0007.79,0002.77,0001.05
2022-05-30 10:50:00,,0812.0,5.00,0.00,27.5,26.2,00.0,36.7,29.3,12.3,0000.0,0007.55,0002.68,0001.05
2022-05-30 10:51:00,,0812.1,5.01,0.00,27.5,26.2,00.0,36.6,29.2,12.3,0000.0,0006.25,0002.63,0001.05
2022-05-30 10:52:00,,0812.0,5.00,0.00,27.4,26.1,00.0,36.6,29.2,12.3,0000.0,0006.14,0002.58,0001.05
2022-05-30 10:53:00,,0812.0,5.01,0.00,27.4,26.1,00.0,36.6,29.2,12.4,0000.0,0006.04,0002.58,0001.06
2022-05-30 10:54:00,,0812.0,5.00,0.00,27.4,26.1,00.0,36.5,29.2,12.5,0000.0,0006.07,0002.58,0001.06
2022-05-30 10:55:00,,0811.9,5.01,0.00,27.4,26.1,00.0,36.5,29.2,12.1,0000.0,0006.10,0002.56,0001.05
2022-05-30 10:56:00,,0811.9,5.01,0.00,27.4,26.1,00.0,36.5,29.2,12.0,0000.0,0006.01,0002.57,0001.06
2022-05-30 10:57:00,,0811.9,5.00,0.00,27.4,26.1,00.0,36.5,29.2,11.9,0000.0,0005.83,0002.59,0001.07
2022-05-30 10:58:00,,0811.9,5.00,0.00,27.4,26.0,00.0,36.5,29.2,11.9,0000.0,0006.09,0002.68,0001.08
2022-05-30 10:59:00,,0811.9,4.99,0.00,27.4,26.0,00.0,36.5,29.2,11.9,0000.0,0006.99,0002.72,0001.08
